• In Romania
  • List of Countries
  • For 7 days
  • Water Temperature
  • Satellite Maps
  • Weather Map
  • Weather Widgets
  • user-avatar
    Login

    Hourly Weather Grecheskoe

    Today, 15 November, Thursday

    Time Temperature Precipitation Wind Pressure Humidity
    00:00 +2°C° 0.1 mm 7 mps 732 mmHg 84%
    01:00 +2°C° 0.1 mm 7 mps 732 mmHg 84%
    02:00 +2°C° 0.1 mm 7 mps 731 mmHg 84%
    03:00 +2°C° 0 mm 6 mps 731 mmHg 82%
    04:00 +1°C° 0.1 mm 6 mps 731 mmHg 83%
    05:00 0°C° 0.1 mm 7 mps 731 mmHg 85%
    06:00 0°C° 0.1 mm 7 mps 731 mmHg 86%
    07:00 +2°C° 0.1 mm 7 mps 731 mmHg 86%
    08:00 +2°C° 0.1 mm 7 mps 730 mmHg 87%
    09:00 +2°C° 0 mm 7 mps 730 mmHg 86%
    10:00 +3°C° 0.2 mm 7 mps 730 mmHg 85%
    11:00 +3°C° 0.2 mm 7 mps 730 mmHg 84%
    12:00 +4°C° 0.2 mm 7 mps 730 mmHg 82%
    13:00 +4°C° 0.1 mm 7 mps 731 mmHg 82%
    14:00 +4°C° 0.1 mm 6 mps 731 mmHg 82%
    15:00 +4°C° 0.1 mm 6 mps 731 mmHg 83%
    16:00 +4°C° 0.1 mm 6 mps 731 mmHg 84%
    17:00 +4°C° 0.1 mm 6 mps 731 mmHg 85%
    18:00 +4°C° 0.1 mm 6 mps 732 mmHg 86%
    19:00 +3°C° 0 mm 6 mps 732 mmHg 86%
    20:00 +3°C° 0 mm 6 mps 732 mmHg 87%
    21:00 +3°C° 0 mm 5 mps 732 mmHg 87%
    22:00 +3°C° 0.1 mm 5 mps 733 mmHg 88%
    23:00 +3°C° 0.1 mm 5 mps 733 mmHg 88%

    Tomorrow, 16 November, Friday

    Time Temperature Precipitation Wind Pressure Humidity
    00:00 +3°C° 0.1 mm 5 mps 733 mmHg 88%
    01:00 +3°C° 0.1 mm 5 mps 733 mmHg 88%
    02:00 +3°C° 0.1 mm 5 mps 733 mmHg 88%
    03:00 +4°C° 0.1 mm 4 mps 733 mmHg 87%
    04:00 +3°C° 0.1 mm 5 mps 733 mmHg 87%
    05:00 +3°C° 0.1 mm 5 mps 733 mmHg 87%
    06:00 +3°C° 0.1 mm 5 mps 733 mmHg 86%
    07:00 +3°C° 0.1 mm 5 mps 733 mmHg 86%
    08:00 +3°C° 0.1 mm 5 mps 733 mmHg 86%
    09:00 +3°C° 0.1 mm 6 mps 734 mmHg 85%
    10:00 +3°C° 0.1 mm 6 mps 733 mmHg 85%
    11:00 +3°C° 0.1 mm 6 mps 733 mmHg 85%
    12:00 +3°C° 0.1 mm 6 mps 733 mmHg 85%
    13:00 +3°C° 0.2 mm 6 mps 733 mmHg 85%
    14:00 +3°C° 0.2 mm 6 mps 733 mmHg 85%
    15:00 +3°C° 0.2 mm 6 mps 734 mmHg 85%
    16:00 +3°C° 0.2 mm 6 mps 734 mmHg 86%
    17:00 +3°C° 0.2 mm 6 mps 734 mmHg 86%
    18:00 +2°C° 0.2 mm 7 mps 734 mmHg 86%
    19:00 +2°C° 0.1 mm 7 mps 734 mmHg 86%
    20:00 +2°C° 0.1 mm 7 mps 734 mmHg 85%
    21:00 +2°C° 0.1 mm 7 mps 734 mmHg 85%
    22:00 +2°C° 0.1 mm 7 mps 734 mmHg 84%
    23:00 +2°C° 0.1 mm 7 mps 734 mmHg 84%

    Day after tomorrow, 17 November, Saturday

    Time Temperature Precipitation Wind Pressure Humidity
    00:00 +2°C° 0.1 mm 7 mps 734 mmHg 84%
    01:00 +2°C° 0.1 mm 6 mps 734 mmHg 84%
    02:00 +2°C° 0.1 mm 6 mps 734 mmHg 84%
    03:00 +2°C° 0.1 mm 6 mps 734 mmHg 84%
    04:00 +2°C° 0.1 mm 6 mps 734 mmHg 85%
    05:00 +2°C° 0.1 mm 6 mps 734 mmHg 86%
    06:00 +2°C° 0.1 mm 5 mps 734 mmHg 87%
    07:00 +2°C° 0.5 mm 5 mps 734 mmHg 88%
    08:00 +2°C° 0.5 mm 5 mps 735 mmHg 89%
    09:00 +3°C° 0.5 mm 4 mps 735 mmHg 89%
    10:00 +3°C° 0.7 mm 4 mps 735 mmHg 89%
    11:00 +3°C° 0.7 mm 4 mps 735 mmHg 88%
    12:00 +4°C° 0.7 mm 3 mps 735 mmHg 88%
    13:00 +4°C° 0.2 mm 3 mps 735 mmHg 88%
    14:00 +4°C° 0.2 mm 3 mps 735 mmHg 89%
    15:00 +4°C° 0.2 mm 3 mps 735 mmHg 89%
    16:00 +5°C° 0.1 mm 2 mps 735 mmHg 90%
    17:00 +5°C° 0.1 mm 2 mps 736 mmHg 91%
    18:00 +5°C° 0.1 mm 1 mps 736 mmHg 92%
    19:00 +5°C° 0.1 mm 1 mps 736 mmHg 93%
    20:00 +5°C° 0.1 mm 1 mps 736 mmHg 93%
    21:00 +5°C° 0.1 mm 1 mps 736 mmHg 93%
    22:00 +5°C° 0 mm 1 mps 736 mmHg 93%
    23:00 +5°C° 0 mm 1 mps 735 mmHg 92%

    18 November, Sunday

    Time Temperature Precipitation Wind Pressure Humidity
    00:00 +5°C° 0 mm 1 mps 735 mmHg 92%
    01:00 +5°C° 0 mm 1 mps 735 mmHg 91%
    02:00 +5°C° 0 mm 1 mps 735 mmHg 91%
    03:00 +5°C° 0 mm 1 mps 734 mmHg 90%
    04:00 +5°C° 0 mm 1 mps 734 mmHg 89%
    05:00 +5°C° 0 mm 1 mps 734 mmHg 89%
    06:00 +5°C° 0 mm 1 mps 734 mmHg 89%
    07:00 +5°C° 0.1 mm 1 mps 734 mmHg 86%
    08:00 +6°C° 0.1 mm 1 mps 734 mmHg 84%
    09:00 +6°C° 0.1 mm 1 mps 734 mmHg 82%
    10:00 +7°C° 0.1 mm 1 mps 734 mmHg 78%
    11:00 +7°C° 0.1 mm 2 mps 733 mmHg 75%
    12:00 +8°C° 0.1 mm 2 mps 733 mmHg 72%
    13:00 +8°C° 0.1 mm 3 mps 733 mmHg 72%
    14:00 +7°C° 0.1 mm 3 mps 733 mmHg 73%
    15:00 +7°C° 0.1 mm 3 mps 733 mmHg 74%
    16:00 +7°C° 0.1 mm 3 mps 733 mmHg 77%
    17:00 +6°C° 0.1 mm 2 mps 734 mmHg 79%
    18:00 +6°C° 0.1 mm 2 mps 734 mmHg 82%
    19:00 +6°C° 0.2 mm 2 mps 734 mmHg 83%
    20:00 +6°C° 0.2 mm 1 mps 734 mmHg 84%
    21:00 +6°C° 0.2 mm 1 mps 735 mmHg 86%
    22:00 +6°C° 0 mm 1 mps 735 mmHg 87%
    23:00 +6°C° 0 mm 1 mps 734 mmHg 88%

    19 November, Monday

    Time Temperature Precipitation Wind Pressure Humidity
    00:00 +6°C° 0 mm 1 mps 734 mmHg 89%
    01:00 +4°C° 0 mm 0 mps 734 mmHg 89%
    02:00 +4°C° 0 mm 0 mps 735 mmHg 90%
    03:00 +4°C° 0 mm 0 mps 735 mmHg 91%
    04:00 +5°C° 0 mm 1 mps 735 mmHg 91%
    05:00 +4°C° 0 mm 1 mps 735 mmHg 91%
    06:00 +4°C° 0 mm 1 mps 735 mmHg 92%
    07:00 +5°C° 0 mm 1 mps 735 mmHg 89%
    08:00 +5°C° 0 mm 1 mps 735 mmHg 87%
    09:00 +6°C° 0 mm 1 mps 735 mmHg 84%
    10:00 +6°C° 0 mm 2 mps 735 mmHg 80%
    11:00 +7°C° 0 mm 2 mps 735 mmHg 76%
    12:00 +8°C° 0 mm 3 mps 734 mmHg 72%
    13:00 +8°C° 0 mm 3 mps 734 mmHg 73%
    14:00 +8°C° 0 mm 3 mps 734 mmHg 74%
    15:00 +7°C° 0 mm 4 mps 734 mmHg 75%
    16:00 +6°C° 0 mm 4 mps 734 mmHg 78%
    17:00 +5°C° 0 mm 4 mps 734 mmHg 82%
    18:00 +4°C° 0 mm 4 mps 734 mmHg 86%
    19:00 +4°C° 0 mm 4 mps 734 mmHg 85%
    20:00 +3°C° 0 mm 5 mps 734 mmHg 85%
    21:00 +3°C° 0 mm 5 mps 734 mmHg 84%
    22:00 +2°C° 0 mm 5 mps 734 mmHg 85%
    23:00 +2°C° 0 mm 5 mps 734 mmHg 85%

    20 November, Tuesday

    Time Temperature Precipitation Wind Pressure Humidity
    00:00 +2°C° 0 mm 5 mps 734 mmHg 85%
    01:00 +1°C° 0 mm 5 mps 734 mmHg 85%
    02:00 +1°C° 0 mm 5 mps 734 mmHg 86%
    03:00 +1°C° 0 mm 5 mps 734 mmHg 87%
    04:00 +1°C° 0 mm 5 mps 734 mmHg 87%
    05:00 +1°C° 0 mm 5 mps 734 mmHg 87%
    06:00 +1°C° 0 mm 5 mps 734 mmHg 87%
    07:00 +1°C° 0 mm 5 mps 734 mmHg 86%
    08:00 +2°C° 0 mm 5 mps 734 mmHg 85%
    09:00 +2°C° 0 mm 5 mps 734 mmHg 85%
    10:00 +2°C° 0 mm 5 mps 734 mmHg 83%
    11:00 +3°C° 0 mm 5 mps 734 mmHg 81%
    12:00 +5°C° 0 mm 5 mps 734 mmHg 79%
    13:00 +5°C° 0 mm 5 mps 734 mmHg 79%
    14:00 +5°C° 0 mm 4 mps 734 mmHg 79%
    15:00 +5°C° 0 mm 4 mps 734 mmHg 79%
    16:00 +5°C° 0 mm 4 mps 734 mmHg 81%
    17:00 +5°C° 0 mm 4 mps 734 mmHg 84%
    18:00 +4°C° 0 mm 4 mps 734 mmHg 86%
    19:00 +4°C° 0 mm 3 mps 734 mmHg 87%
    20:00 +4°C° 0 mm 3 mps 734 mmHg 88%
    21:00 +4°C° 0 mm 3 mps 734 mmHg 89%
    22:00 +4°C° 0 mm 3 mps 734 mmHg 89%
    23:00 +4°C° 0 mm 3 mps 734 mmHg 90%
    Show more